(416) Vaticana
ephemeris date magn radius delta ra dec elong phase
Today14 Aug 202612.92.396 AU3.056 AU12h18m+05°03'41.7°16.3°
Opposition2 Aug 202710.82.342 AU1.368 AU21h21m-37°52'158.7°9.1°
(416) Vaticana - 2026-08-14
astro.vanbuitenen.nl


 
-1 year
-1 month
-1 day
Now
+1 day
+1 month
+1 year

The interactive orbit chart above shows the body's path through the solar system and its position at the given date. Green and blue lines are shown perpendicular to the ecliptic plane: Green if the path is above the ecliptic plane, blue if it is below. (Left-click and drag to rotate the view; Right-click and drag to move the view; Use scroll wheel to zoom in our out.)

The orbital elements of Vaticana are:

            e (Eccentricity)                : 0.2198384
            a (Semimajor axis)              : 2.7907824
            i (Inclination)                 : 12.83238
            Ω (Longitude of ascending node) : 57.89949
            ω (Argument of perihelion)      : 200.27474
            M (Mean anomaly)                : 305.76802
            Epoch                           : 2026 Jun 09

            L (Longitude of perihelion)     : 77.70768
            B (Latitude of perihelion)      : -4.41399
            P (Orbital period in years)     : 4.66            
        

The light curve chart below shows the estimated development of the minor planet's magnitude.


The all-sky chart below shows the path of the minor planet over the same period as the light curve. The current position is marked yellow.





The following chart shows the path of the minor planet in the next few days. The field of view is optimized for (~10x50) binoculars and finderscopes.




Ephemerides:
Date       Time       RA (2000)    DEC (2000)    delta   radius  elong  phase   PA    magn
2026-08-14 00:00 UT   12 18 03.8   +05 03 54     3.056    2.396   41.7   16.3   106   12.9 
2026-08-14 03:20 UT   12 18 16.6   +05 02 01     3.057    2.395   41.6   16.3   106   12.9 
2026-08-15 00:00 UT   12 19 35.9   +04 50 19     3.062    2.394   41.1   16.2   106   12.9 
2026-08-16 00:00 UT   12 21 08.3   +04 36 43     3.068    2.392   40.6   16.0   106   12.9 
2026-08-17 00:00 UT   12 22 41.0   +04 23 05     3.073    2.390   40.1   15.8   106   12.9 
2026-08-18 00:00 UT   12 24 14.1   +04 09 27     3.079    2.388   39.6   15.7   106   12.9 
2026-08-19 00:00 UT   12 25 47.5   +03 55 48     3.084    2.386   39.1   15.5   106   12.9 
2026-08-20 00:00 UT   12 27 21.3   +03 42 08     3.090    2.384   38.6   15.3   106   12.9 
2026-08-21 00:00 UT   12 28 55.4   +03 28 28     3.095    2.382   38.1   15.2   106   12.9 
2026-08-22 00:00 UT   12 30 29.8   +03 14 47     3.100    2.380   37.6   15.0   105   12.9 
2026-08-23 00:00 UT   12 32 04.6   +03 01 05     3.106    2.378   37.0   14.8   105   12.9 
2026-08-24 00:00 UT   12 33 39.7   +02 47 23     3.111    2.376   36.5   14.7   105   12.9 
2026-08-25 00:00 UT   12 35 15.1   +02 33 40     3.116    2.374   36.0   14.5   105   12.9 
2026-08-26 00:00 UT   12 36 50.9   +02 19 56     3.121    2.372   35.5   14.3   105   12.9 
2026-08-27 00:00 UT   12 38 26.9   +02 06 12     3.125    2.370   35.0   14.2   105   12.9 
2026-08-28 00:00 UT   12 40 03.3   +01 52 28     3.130    2.368   34.5   14.0   105   12.9 
2026-08-29 00:00 UT   12 41 40.1   +01 38 43     3.135    2.366   34.0   13.8   105   12.9 
2026-08-30 00:00 UT   12 43 17.1   +01 24 58     3.139    2.364   33.5   13.6   105   12.8 
2026-08-31 00:00 UT   12 44 54.5   +01 11 13     3.144    2.362   33.0   13.5   104   12.8 
2026-09-01 00:00 UT   12 46 32.2   +00 57 27     3.148    2.360   32.5   13.3   104   12.8 


    Terminology:
            
    delta:  distance between minor planet and earth in AU
    radius: distance between minor planet and sun in AU
    magn:   magnitude (brightness) estimate    
    ra:     right ascension in hours (24h = 360deg)
    dec:    declination in degrees
    elong:  elongation in degrees (angle sun-earth-minor planet)    
    phase:  phase angle in degrees (angle sun-minor planet-earth)        
    AU:     Astronomical Unit (mean distance between earth and sun: 149597870.7 km
    

Orbital elements provided by the MPC (Minor Planet Center).
Calculations by a modified version of AAPlus, a C# implementation of the AA+ project by PJ Naughter from the algorithms presented in the book "Astronomical Algorithms" by Jean Meeus.
NGC2000 dso catalog and star labels from VizieR as provided by the Strasbourg astronomical Data Center.
Tycho2 catalog from the ESO archive.